FENGYUN 1C DEB

Satellite information

Favourite Embed

Satellite Type and Status

DEBRISIN ORBIT

Key statistics

Satellite FENGYUN 1C DEB at a glance.

Uptime

9555

Days in orbit

Revolutions

≈ 14.2

Per day

Orbit

SSO

Sun Synchronous Orbit

Inclination

98.9

Latest

Satellite identification and parameters

Extended collection of information and parameters for FENGYUN 1C DEB.

Object identification

Identified? True

Debris? True

Object name: FENGYUN 1C DEB

International designator: 1999-025CBT

Object number (NORAD): 31661

Object ID (CCSDS): 31661

Country: PEOPLES REPUBLIC OF CHINA (PRC)

Current information (Y/N): Y

RCS size: SMALL

Orbital parameters

Period: 101.116 minutes

Inclination: 98.8674 deg

SMA: 7189.642 km

Apoapsis: 852.208 km

Periapsis: 770.805 km

RAAN: 264.7871 deg

Eccentricy: 0.0056611

Argument of periapsis: 327.5522 deg

Mean anomaly: 86.7717 deg

Mean motion: 14.24104626 rev/day

Mean motion (dot): 0.00002211 rev/day2

B* drag term: 0.00096477 1/REarth

Two-line elements (TLE)

Creation date: July 6, 2025, 6:05 p.m.

Reference frame: TEME

Reference center: EARTH

Epoch: July 6, 2025, 4:21 a.m. UTC

TLE line 0: 0 FENGYUN 1C DEB

TLE line 1: 1 31661U 99025CBT 25187.18187494 .00002211 00000-0 96477-3 0 9999

TLE line 2: 2 31661 98.8674 264.7871 0056611 327.5522 86.7717 14.24104626934418

Live tracking on map

Real-time ground track for satellite FENGYUN 1C DEB.

In-orbit conjunctions

A list of the most updated potential collisions computed for object FENGYUN 1C DEB.

Target Orbit TCA Probability of collision Miss distance Type
FENGYUN 1C DEB SSO 2025-04-23 23:49:46 0.0001952689 53.0 (m) DEBRIS
METEOR 2-6 LEO 2024-12-27 10:10:29 0.0001216076 327.0 (m) PAYLOAD
CZ-6A DEB LEO 2024-10-31 19:06:35 0.0005063976 236.0 (m) DEBRIS
SL-24 R/B SSO 2024-09-28 17:35:34 0.0001331245 404.0 (m) ROCKET BODY

Associated space launch

Chinese polar orbiting meteorological satellite

FENGYUN 1C DEB was lifted into orbit during the mission ‘Long March 4B | Feng Yun 1C’, on board a Long March 4B space rocket.

The launch took place on May 10, 1999, 1:33 a.m. from Launch Complex 7.

For more information about the launch, click the button.

Launch to space Long March 4B | Feng Yun 1C
Long March 4B | Feng Yun 1C

Agency: N/A

Status: Launch Successful

Launch date: May 10, 1999, 1:33 a.m. UTC

Rocket: Long March 4B

Launch pad: Launch Complex 7

Location: Taiyuan Satellite Launch Center, People's Republic of China

...

Latest news about this satellite

There are no fresh news available about this satellite. Check back as we update our databases every day.


Newsletter sign-up

Weekly statistics, charts and insights to help you stay on top of the space industry.